#�ϑ�����,���ϕ���,���ϕ���,�ő啗��,�ő啗����������,�ő�u�ԕ���,�ő�u�ԕ�����������
#(�N����),(m/s)   ,(16����),(m/s)   ,(16����)        ,(m/s)       ,(16����)            
2015/2/9 0:01,1.9,11,2.2,11,3.7,7
2015/2/9 0:02,2,10,2,11,5.8,10
2015/2/9 0:03,2.2,10,2.2,11,5.1,9
2015/2/9 0:04,2.4,10,2.4,10,4.2,10
2015/2/9 0:05,2.5,10,2.5,10,6.3,9
2015/2/9 0:06,2.5,10,2.5,10,4.5,10
2015/2/9 0:07,2.4,10,2.6,10,4.5,10
2015/2/9 0:08,2.3,11,2.4,10,4.8,11
2015/2/9 0:09,2.2,11,2.3,10,2.2,12
2015/2/9 0:10,2.2,11,2.2,10,4.1,12
2015/2/9 0:11,2.2,11,2.2,10,3.3,10
2015/2/9 0:12,2,11,2.2,10,4.2,10
2015/2/9 0:13,1.9,11,2,10,4.8,10
2015/2/9 0:14,1.9,11,2,10,5.1,10
2015/2/9 0:15,2,11,2,10,5,11
2015/2/9 0:16,2.1,11,2.2,10,7.4,9
2015/2/9 0:17,2.4,11,2.4,10,5.6,9
2015/2/9 0:18,2.4,11,2.4,11,5.8,10
2015/2/9 0:19,2.5,11,2.5,11,5.6,11
2015/2/9 0:20,2.4,11,2.5,11,3,10
2015/2/9 0:21,2.5,11,2.5,11,3.3,13
2015/2/9 0:22,2.4,11,2.5,11,3.3,12
2015/2/9 0:23,2.3,11,2.4,11,2.7,11
2015/2/9 0:24,2.2,11,2.3,11,3.5,10
2015/2/9 0:25,2,12,2.2,11,2.5,7
2015/2/9 0:26,2,12,2,11,3.6,11
2015/2/9 0:27,1.9,12,2,11,4.5,13
2015/2/9 0:28,2.1,12,2.1,11,4.9,12
2015/2/9 0:29,2,12,2.1,11,4.3,13
2015/2/9 0:30,2.1,12,2.1,11,3.8,10
2015/2/9 0:31,2.1,12,2.1,11,4.7,10
2015/2/9 0:32,2.2,12,2.2,11,3.5,14
2015/2/9 0:33,2.3,12,2.3,11,4.1,11
2015/2/9 0:34,2.4,12,2.4,12,4.2,13
2015/2/9 0:35,2.5,12,2.5,12,3.9,12
2015/2/9 0:36,2.4,12,2.5,12,2.7,10
2015/2/9 0:37,2.2,12,2.4,12,3.1,11
2015/2/9 0:38,2,11,2.2,12,1.6,9
2015/2/9 0:39,1.9,11,2,12,2.5,9
2015/2/9 0:40,1.8,11,1.9,12,3.6,10
2015/2/9 0:41,1.9,11,1.9,12,3.3,9
2015/2/9 0:42,1.9,11,1.9,12,3.6,9
2015/2/9 0:43,1.9,11,1.9,12,3.1,9
2015/2/9 0:44,1.9,11,1.9,12,4.1,9
2015/2/9 0:45,2,10,2,12,4.9,10
2015/2/9 0:46,2,10,2.1,12,3.8,10
2015/2/9 0:47,2,10,2.1,12,3,10
2015/2/9 0:48,2.1,10,2.1,10,2.4,11
2015/2/9 0:49,2.2,10,2.2,10,3.9,10
2015/2/9 0:50,2.2,10,2.2,10,3.3,10
2015/2/9 0:51,2.2,10,2.2,10,2,10
2015/2/9 0:52,2.1,10,2.2,10,3.5,9
2015/2/9 0:53,2,10,2.1,10,1.8,10
2015/2/9 0:54,1.9,10,2,10,3.1,11
2015/2/9 0:55,1.7,10,1.9,10,2.5,11
2015/2/9 0:56,1.5,10,1.7,10,1.8,11
2015/2/9 0:57,1.6,10,1.6,10,3.5,12
2015/2/9 0:58,1.6,10,1.6,10,2,9
2015/2/9 0:59,1.6,10,1.6,10,3.3,11
2015/2/9 1:00,1.5,10,1.6,10,3.7,10
2015/2/9 1:01,1.5,10,1.5,10,3.7,7
2015/2/9 1:02,1.8,10,1.8,10,7,10
2015/2/9 1:03,2,10,2,10,5.6,10
2015/2/9 1:04,2.1,10,2.2,10,5,8
2015/2/9 1:05,2.2,10,2.2,10,4.1,9
2015/2/9 1:06,2.4,10,2.4,10,4.4,10
2015/2/9 1:07,2.4,10,2.4,10,4.4,11
2015/2/9 1:08,2.5,10,2.6,10,3.8,10
2015/2/9 1:09,2.6,10,2.6,10,4.7,10
2015/2/9 1:10,2.7,10,2.7,10,3.6,7
2015/2/9 1:11,2.7,10,2.7,10,3.8,7
2015/2/9 1:12,2.4,10,2.7,10,2.6,8
2015/2/9 1:13,2.2,10,2.4,10,3.6,10
2015/2/9 1:14,2.1,10,2.2,10,3.8,9
2015/2/9 1:15,2.1,10,2.1,10,4.3,8
2015/2/9 1:16,2,10,2.1,10,3.9,11
2015/2/9 1:17,1.9,10,2,10,4.4,10
2015/2/9 1:18,1.8,10,1.9,10,2.6,10
2015/2/9 1:19,1.6,10,1.8,10,1.1,10
2015/2/9 1:20,1.6,10,1.6,10,2.2,7
2015/2/9 1:21,1.6,10,1.6,10,2.4,7
2015/2/9 1:22,1.6,9,1.6,10,4.1,11
2015/2/9 1:23,1.7,9,1.7,10,4.8,10
2015/2/9 1:24,1.8,9,1.8,10,4.9,9
2015/2/9 1:25,1.9,9,1.9,10,4.5,10
2015/2/9 1:26,1.8,9,1.9,10,4.1,7
2015/2/9 1:27,1.8,9,1.8,10,3.9,10
2015/2/9 1:28,1.9,9,1.9,9,3.6,8
2015/2/9 1:29,2.1,9,2.1,9,4.4,10
2015/2/9 1:30,2,9,2.1,9,2.5,10
2015/2/9 1:31,2.1,9,2.1,9,3.3,8
2015/2/9 1:32,2.1,9,2.1,9,6,10
2015/2/9 1:33,2.3,9,2.3,9,8.1,10
2015/2/9 1:34,2.3,9,2.4,9,6.5,8
2015/2/9 1:35,2.3,9,2.3,9,4.7,10
2015/2/9 1:36,2.3,9,2.3,9,3.1,8
2015/2/9 1:37,2.2,10,2.3,9,3.8,10
2015/2/9 1:38,2.3,10,2.3,9,3.8,13
2015/2/9 1:39,2.1,10,2.3,9,3.5,11
2015/2/9 1:40,2.2,10,2.2,9,5.4,12
2015/2/9 1:41,2.1,10,2.2,9,2.1,15
2015/2/9 1:42,2.1,11,2.2,9,2.2,1
2015/2/9 1:43,1.7,11,2.1,9,2,12
2015/2/9 1:44,1.6,11,1.7,9,2.5,7
2015/2/9 1:45,1.6,12,1.7,9,4.9,11
2015/2/9 1:46,1.6,12,1.6,9,2,12
2015/2/9 1:47,1.5,12,1.6,10,1.8,13
2015/2/9 1:48,1.4,13,1.5,10,3.3,14
2015/2/9 1:49,1.5,13,1.6,10,4.1,13
2015/2/9 1:50,1.4,13,1.5,10,2.4,10
2015/2/9 1:51,1.5,12,1.5,11,3.2,9
2015/2/9 1:52,1.7,12,1.7,11,5.6,10
2015/2/9 1:53,1.9,12,1.9,12,4.9,11
2015/2/9 1:54,2.2,12,2.2,12,6.1,10
2015/2/9 1:55,2.2,12,2.2,12,6.9,13
2015/2/9 1:56,2.6,11,2.6,11,7.2,12
2015/2/9 1:57,2.8,11,2.8,11,6.9,9
2015/2/9 1:58,2.9,11,2.9,11,4.4,10
2015/2/9 1:59,2.8,11,2.8,11,3.7,11
2015/2/9 2:00,2.7,11,2.8,11,2.1,7
2015/2/9 2:01,3,11,3,11,7.9,10
2015/2/9 2:02,3.1,11,3.1,11,7.7,11
2015/2/9 2:03,3.1,11,3.1,11,6.4,10
2015/2/9 2:04,2.9,11,3.1,11,4.2,12
2015/2/9 2:05,2.9,11,2.9,11,7.2,10
2015/2/9 2:06,2.6,11,2.8,11,4.3,11
2015/2/9 2:07,2.5,11,2.6,11,3.3,14
2015/2/9 2:08,2.6,11,2.6,11,3.6,13
2015/2/9 2:09,2.7,11,2.7,11,4.8,10
2015/2/9 2:10,2.7,11,2.7,11,3.2,9
2015/2/9 2:11,2.4,11,2.7,11,2.1,12
2015/2/9 2:12,2.1,11,2.4,11,1.8,12
2015/2/9 2:13,2,11,2.1,11,3,9
2015/2/9 2:14,1.9,11,2,11,4.9,10
2015/2/9 2:15,2,11,2,11,4.2,10
2015/2/9 2:16,1.9,11,2,11,3.8,12
2015/2/9 2:17,2,11,2,11,4.5,10
2015/2/9 2:18,1.8,11,2,11,4.1,8
2015/2/9 2:19,2,11,2,11,5.7,10
2015/2/9 2:20,2,11,2,11,5.4,10
2015/2/9 2:21,2.1,10,2.1,11,5.7,9
2015/2/9 2:22,2.4,10,2.4,10,7,10
2015/2/9 2:23,2.6,10,2.6,10,5.7,10
2015/2/9 2:24,2.6,10,2.6,10,4.3,11
2015/2/9 2:25,2.3,10,2.5,10,2.4,15
2015/2/9 2:26,2.3,11,2.3,10,3.2,10
2015/2/9 2:27,2.1,11,2.3,10,2.5,10
2015/2/9 2:28,2.1,11,2.1,10,2,10
2015/2/9 2:29,1.9,11,2,10,4.3,10
2015/2/9 2:30,1.9,11,1.9,10,3.7,9
2015/2/9 2:31,1.8,11,1.9,10,3.7,9
2015/2/9 2:32,1.7,11,1.8,10,3.5,10
2015/2/9 2:33,1.7,11,1.7,10,5,9
2015/2/9 2:34,1.8,11,1.8,10,6.1,9
2015/2/9 2:35,2,10,2,11,7.2,8
2015/2/9 2:36,2.1,10,2.1,11,7.1,10
2015/2/9 2:37,2.4,10,2.4,10,6.7,10
2015/2/9 2:38,2.7,10,2.7,10,7,11
2015/2/9 2:39,2.9,10,3,10,6.9,10
2015/2/9 2:40,3.1,10,3.1,10,6.2,10
2015/2/9 2:41,3.2,10,3.2,10,4.4,10
2015/2/9 2:42,3.2,10,3.2,10,3.9,10
2015/2/9 2:43,3.1,10,3.2,10,3.8,10
2015/2/9 2:44,3.1,10,3.2,10,5.5,9
2015/2/9 2:45,2.9,10,3.1,10,2.7,11
2015/2/9 2:46,2.8,10,2.9,10,3.3,10
2015/2/9 2:47,2.7,11,2.8,10,3.5,10
2015/2/9 2:48,2.6,11,2.7,10,5.5,10
2015/2/9 2:49,2.6,11,2.6,10,5.6,11
2015/2/9 2:50,2.5,11,2.6,10,4.8,12
2015/2/9 2:51,2.5,11,2.5,10,4.1,10
2015/2/9 2:52,2.5,10,2.5,10,4.1,10
2015/2/9 2:53,2.5,10,2.6,10,4.1,11
2015/2/9 2:54,2.5,10,2.5,10,3.5,9
2015/2/9 2:55,2.6,10,2.6,10,4.4,9
2015/2/9 2:56,2.8,10,2.8,11,4.4,9
2015/2/9 2:57,2.8,10,2.8,10,3.7,9
2015/2/9 2:58,2.8,10,2.8,10,4.8,10
2015/2/9 2:59,2.6,10,2.8,10,4.5,9
2015/2/9 3:00,2.6,10,2.6,10,4.4,9
2015/2/9 3:01,2.6,10,2.6,10,4.1,9
2015/2/9 3:02,2.6,10,2.6,10,4.2,9
2015/2/9 3:03,2.6,10,2.6,10,6.5,9
2015/2/9 3:04,2.8,10,2.8,10,5,9
2015/2/9 3:05,2.8,10,2.8,10,4.3,10
2015/2/9 3:06,2.7,10,2.8,10,5.5,10
2015/2/9 3:07,2.7,9,2.7,10,5.8,11
2015/2/9 3:08,2.7,9,2.7,10,5.1,9
2015/2/9 3:09,2.8,9,2.8,10,5.1,10
2015/2/9 3:10,2.8,10,2.8,10,3.9,10
2015/2/9 3:11,2.9,10,2.9,10,5.4,9
2015/2/9 3:12,3,10,3,10,6.9,10
2015/2/9 3:13,3,10,3,10,4.9,9
2015/2/9 3:14,3,10,3,10,6.7,9
2015/2/9 3:15,3,10,3,10,6.5,10
2015/2/9 3:16,3.2,10,3.2,10,6.4,10
2015/2/9 3:17,3.4,10,3.4,10,6.2,11
2015/2/9 3:18,3.3,10,3.4,10,3.9,11
2015/2/9 3:19,3.1,10,3.3,10,2,11
2015/2/9 3:20,3,11,3.1,10,4.9,10
2015/2/9 3:21,3.1,11,3.1,10,5.5,9
2015/2/9 3:22,2.9,11,3.1,10,5.2,9
2015/2/9 3:23,3,11,3,10,6.1,10
2015/2/9 3:24,3,11,3,10,5.6,9
2015/2/9 3:25,2.8,10,3,10,4.3,9
2015/2/9 3:26,2.7,10,2.8,10,5.1,9
2015/2/9 3:27,2.5,10,2.7,10,3.7,9
2015/2/9 3:28,2.7,10,2.7,10,6.1,10
2015/2/9 3:29,2.7,10,2.7,10,3.6,9
2015/2/9 3:30,2.8,9,2.8,11,5.4,9
2015/2/9 3:31,2.7,9,2.8,11,5,9
2015/2/9 3:32,2.8,9,2.8,11,5.2,9
2015/2/9 3:33,2.8,9,2.8,11,4.8,10
2015/2/9 3:34,2.6,9,2.8,11,4.8,9
2015/2/9 3:35,2.8,9,2.8,10,4.9,11
2015/2/9 3:36,2.8,9,2.8,10,4.4,9
2015/2/9 3:37,2.7,9,2.8,10,3.9,10
2015/2/9 3:38,2.6,9,2.7,10,4.1,9
2015/2/9 3:39,2.6,10,2.6,10,4.4,11
2015/2/9 3:40,2.6,10,2.6,9,4.2,10
2015/2/9 3:41,2.6,10,2.7,9,4.7,10
2015/2/9 3:42,2.6,10,2.6,9,4.3,10
2015/2/9 3:43,2.6,10,2.6,9,4.1,10
2015/2/9 3:44,2.7,10,2.7,9,3.9,9
2015/2/9 3:45,2.5,10,2.7,9,2.6,10
2015/2/9 3:46,2.4,10,2.4,9,3.1,9
2015/2/9 3:47,2.3,10,2.4,9,3.6,9
2015/2/9 3:48,2.3,10,2.3,10,3.2,8
2015/2/9 3:49,2.3,10,2.3,10,5.2,10
2015/2/9 3:50,2.3,10,2.3,10,4.3,10
2015/2/9 3:51,2.2,10,2.3,10,3.6,10
2015/2/9 3:52,2.1,10,2.2,10,3.9,10
2015/2/9 3:53,2,10,2.1,10,2.5,11
2015/2/9 3:54,2,10,2.1,10,3.1,11
2015/2/9 3:55,2.1,10,2.1,10,2.6,12
2015/2/9 3:56,2.1,10,2.1,10,1.9,8
2015/2/9 3:57,2.1,10,2.1,10,3.1,10
2015/2/9 3:58,2.1,10,2.2,10,2.5,10
2015/2/9 3:59,2,10,2.1,10,2.6,9
2015/2/9 4:00,1.9,10,2,10,3.3,9
2015/2/9 4:01,1.8,10,1.9,10,3.8,9
2015/2/9 4:02,1.9,9,1.9,10,3.8,9
2015/2/9 4:03,2,9,2,10,4.2,9
2015/2/9 4:04,1.9,9,2,10,3.8,9
2015/2/9 4:05,1.9,9,1.9,10,2.9,9
2015/2/9 4:06,1.9,9,1.9,10,4.1,10
2015/2/9 4:07,2,9,2,10,4.1,10
2015/2/9 4:08,2.1,9,2.1,10,3.7,10
2015/2/9 4:09,2.1,9,2.1,9,2.9,9
2015/2/9 4:10,2.2,9,2.2,9,3.5,9
2015/2/9 4:11,2.2,9,2.2,9,4.5,9
2015/2/9 4:12,2.2,10,2.3,10,4.2,12
2015/2/9 4:13,2.2,10,2.2,10,3.9,11
2015/2/9 4:14,2.1,10,2.2,10,3.6,12
2015/2/9 4:15,2.2,10,2.2,10,3.1,12
2015/2/9 4:16,2.3,10,2.3,10,4.7,10
2015/2/9 4:17,2.2,10,2.3,10,3.2,12
2015/2/9 4:18,2,10,2.2,10,2,8
2015/2/9 4:19,2.3,11,2.3,10,5.7,10
2015/2/9 4:20,2.4,11,2.4,11,6.8,11
2015/2/9 4:21,2.7,11,2.7,11,6.7,10
2015/2/9 4:22,2.7,11,2.7,11,4.8,9
2015/2/9 4:23,2.7,11,2.7,11,4.9,9
2015/2/9 4:24,2.7,11,2.7,11,3.8,11
2015/2/9 4:25,2.6,10,2.7,11,3.7,8
2015/2/9 4:26,2.6,10,2.6,11,4.9,9
2015/2/9 4:27,2.8,10,2.8,10,4.2,9
2015/2/9 4:28,3,10,3,10,4.4,10
2015/2/9 4:29,2.8,10,2.9,10,4.4,9
2015/2/9 4:30,2.6,10,2.8,10,3.9,8
2015/2/9 4:31,2.4,9,2.6,10,4.7,9
2015/2/9 4:32,2.4,9,2.4,10,3.9,9
2015/2/9 4:33,2.4,9,2.4,10,4.2,9
2015/2/9 4:34,2.4,9,2.4,10,4.3,9
2015/2/9 4:35,2.5,9,2.5,10,5.1,9
2015/2/9 4:36,2.4,9,2.5,10,4.7,9
2015/2/9 4:37,2.4,9,2.4,10,4.4,9
2015/2/9 4:38,2.4,9,2.4,10,4.5,9
2015/2/9 4:39,2.4,9,2.4,10,4.5,9
2015/2/9 4:40,2.5,9,2.5,10,4.9,10
2015/2/9 4:41,2.5,9,2.5,9,4.8,9
2015/2/9 4:42,2.6,9,2.6,9,5.2,9
2015/2/9 4:43,2.6,9,2.6,9,3.9,10
2015/2/9 4:44,2.7,10,2.7,10,5.1,10
2015/2/9 4:45,2.8,10,2.8,10,4.3,11
2015/2/9 4:46,2.8,10,2.8,10,3.3,10
2015/2/9 4:47,2.8,10,2.8,10,3.5,12
2015/2/9 4:48,2.7,10,2.8,10,2.9,13
2015/2/9 4:49,2.6,11,2.7,10,3.1,13
2015/2/9 4:50,2.5,11,2.6,10,2.5,13
2015/2/9 4:51,2.4,11,2.5,10,2.4,12
2015/2/9 4:52,2.3,12,2.4,10,2.1,14
2015/2/9 4:53,2.2,12,2.3,10,2.6,12
2015/2/9 4:54,2,12,2.2,10,2.5,12
2015/2/9 4:55,1.8,12,2,10,2.2,11
2015/2/9 4:56,1.7,12,1.8,10,1.9,12
2015/2/9 4:57,1.7,12,1.7,10,2.4,9
2015/2/9 4:58,1.7,12,1.7,10,3.9,11
2015/2/9 4:59,1.8,12,1.8,11,3.6,10
2015/2/9 5:00,1.9,11,1.9,11,3,10
2015/2/9 5:01,1.9,11,1.9,12,3.2,10
2015/2/9 5:02,2,11,2,12,2.9,9
2015/2/9 5:03,2.1,10,2.1,12,4.2,9
2015/2/9 5:04,2.1,10,2.1,11,3.3,10
2015/2/9 5:05,2.2,10,2.2,10,3.1,10
2015/2/9 5:06,2.3,10,2.3,10,2.9,9
2015/2/9 5:07,2.2,10,2.3,10,2.9,10
2015/2/9 5:08,2.2,10,2.3,10,3.3,10
2015/2/9 5:09,2.1,10,2.1,10,3.5,9
2015/2/9 5:10,2,10,2,10,3.2,10
2015/2/9 5:11,1.9,10,2,10,3.8,9
2015/2/9 5:12,1.9,10,1.9,10,2.5,11
2015/2/9 5:13,1.8,10,1.9,10,2.6,10
2015/2/9 5:14,1.8,10,1.8,10,2.5,9
2015/2/9 5:15,1.7,10,1.8,10,2.1,10
2015/2/9 5:16,1.7,10,1.8,10,2.6,11
2015/2/9 5:17,1.8,10,1.8,10,2.2,10
2015/2/9 5:18,1.7,10,1.7,10,2.1,10
2015/2/9 5:19,1.7,10,1.8,10,2.6,10
2015/2/9 5:20,1.6,10,1.7,10,2.7,10
2015/2/9 5:21,1.6,10,1.6,10,1.9,9
2015/2/9 5:22,1.6,10,1.6,10,2,11
2015/2/9 5:23,1.5,10,1.5,10,1.8,10
2015/2/9 5:24,1.4,10,1.5,10,2.5,9
2015/2/9 5:25,1.5,10,1.5,10,3,9
2015/2/9 5:26,1.5,10,1.5,10,3,9
2015/2/9 5:27,1.5,10,1.5,10,3,9
2015/2/9 5:28,1.5,10,1.5,10,2.7,10
2015/2/9 5:29,1.5,10,1.5,10,1.6,10
2015/2/9 5:30,1.5,10,1.5,10,2,8
2015/2/9 5:31,1.4,10,1.5,10,1.8,9
2015/2/9 5:32,1.5,9,1.5,10,2.5,9
2015/2/9 5:33,1.5,9,1.5,10,2.1,9
2015/2/9 5:34,1.7,9,1.7,9,5.5,10
2015/2/9 5:35,1.7,9,1.7,9,5.2,9
2015/2/9 5:36,1.8,9,1.8,9,4.5,10
2015/2/9 5:37,1.9,10,1.9,10,4.4,10
2015/2/9 5:38,2.1,10,2.1,10,3.6,9
2015/2/9 5:39,2.2,10,2.2,10,3.5,12
2015/2/9 5:40,2.3,10,2.3,10,2.7,10
2015/2/9 5:41,2.3,10,2.3,10,2,10
2015/2/9 5:42,2.3,10,2.3,10,2.2,9
2015/2/9 5:43,2.3,10,2.3,10,2.6,9
2015/2/9 5:44,2.2,10,2.3,10,2.9,10
2015/2/9 5:45,2.1,10,2.2,10,3.6,9
2015/2/9 5:46,2,10,2.1,10,2.6,10
2015/2/9 5:47,1.7,10,2,10,2,11
2015/2/9 5:48,1.6,10,1.7,10,2.4,10
2015/2/9 5:49,1.5,10,1.6,10,2.6,9
2015/2/9 5:50,1.4,10,1.4,10,1.5,8
2015/2/9 5:51,1.3,10,1.4,10,1.6,14
2015/2/9 5:52,1.2,10,1.3,10,0.9,9
2015/2/9 5:53,1.3,10,1.3,10,3.7,12
2015/2/9 5:54,1.2,10,1.3,10,2.4,6
2015/2/9 5:55,1,10,1.2,10,1.5,14
2015/2/9 5:56,1,10,1,10,2,11
2015/2/9 5:57,1,10,1,10,1.3,8
2015/2/9 5:58,1,11,1,10,2.9,9
2015/2/9 5:59,1,11,1,10,2,12
2015/2/9 6:00,1,11,1,10,2.7,13
2015/2/9 6:01,1,11,1,10,1.5,10
2015/2/9 6:02,1,11,1,10,0.6,5
2015/2/9 6:03,0.9,11,1,10,2.2,12
2015/2/9 6:04,1,11,1,10,2.4,12
2015/2/9 6:05,1,12,1,10,1.8,14
2015/2/9 6:06,1.1,12,1.1,12,3,11
2015/2/9 6:07,1.2,12,1.2,12,3.2,13
2015/2/9 6:08,1.3,12,1.3,12,2.6,13
2015/2/9 6:09,1.3,12,1.3,12,1.9,13
2015/2/9 6:10,1.2,12,1.3,12,1.6,13
2015/2/9 6:11,1.2,12,1.2,12,1.4,9
2015/2/9 6:12,1.2,12,1.2,12,1.3,8
2015/2/9 6:13,1.2,12,1.2,12,1.9,8
2015/2/9 6:14,1.1,12,1.2,12,1.5,11
2015/2/9 6:15,1.1,12,1.1,12,1.3,11
2015/2/9 6:16,1,12,1.1,12,1.1,9
2015/2/9 6:17,0.8,12,0.9,12,1.4,10
2015/2/9 6:18,0.7,12,0.8,12,1.5,13
2015/2/9 6:19,0.7,12,0.7,12,1.3,12
2015/2/9 6:20,0.6,12,0.7,12,0.3,8
2015/2/9 6:21,0.6,12,0.6,12,0.3,2
2015/2/9 6:22,0.5,12,0.6,12,0.6,14
2015/2/9 6:23,0.6,13,0.6,12,1.5,14
2015/2/9 6:24,0.5,12,0.5,12,0.9,14
2015/2/9 6:25,0.5,12,0.5,12,1.5,8
2015/2/9 6:26,0.6,12,0.6,12,1.9,9
2015/2/9 6:27,0.6,12,0.6,12,1.6,9
2015/2/9 6:28,0.5,12,0.5,12,0.9,9
2015/2/9 6:29,0.4,12,0.5,12,0.1,12
2015/2/9 6:30,0.5,11,0.5,12,1.3,9
2015/2/9 6:31,0.5,11,0.5,12,1.4,9
2015/2/9 6:32,0.5,11,0.5,12,0.9,9
2015/2/9 6:33,0.5,10,0.5,12,1.6,10
2015/2/9 6:34,0.6,10,0.6,12,1.6,10
2015/2/9 6:35,0.6,10,0.6,12,1.1,9
2015/2/9 6:36,0.6,10,0.6,12,1.9,10
2015/2/9 6:37,0.7,10,0.7,10,2,10
2015/2/9 6:38,0.8,10,0.8,10,1.9,9
2015/2/9 6:39,0.8,10,0.8,10,1,9
2015/2/9 6:40,0.8,10,0.8,10,1.6,9
2015/2/9 6:41,0.9,10,0.9,10,2.2,9
2015/2/9 6:42,0.9,10,0.9,10,1.6,11
2015/2/9 6:43,0.9,10,0.9,10,1.8,9
2015/2/9 6:44,0.8,10,0.9,10,1.3,8
2015/2/9 6:45,0.9,9,0.9,10,1.5,8
2015/2/9 6:46,0.9,9,0.9,10,1.5,9
2015/2/9 6:47,0.8,9,0.9,10,1.5,10
2015/2/9 6:48,0.8,9,0.8,10,1.4,8
2015/2/9 6:49,0.8,9,0.8,10,1.8,8
2015/2/9 6:50,0.9,9,0.9,10,2.1,9
2015/2/9 6:51,0.9,9,1,9,2.1,9
2015/2/9 6:52,0.9,9,0.9,9,1.9,8
2015/2/9 6:53,0.9,9,0.9,9,1.4,9
2015/2/9 6:54,1,9,1,9,1.5,10
2015/2/9 6:55,1,9,1,9,1.4,9
2015/2/9 6:56,1,9,1,9,1.4,9
2015/2/9 6:57,1,9,1,9,1.6,10
2015/2/9 6:58,1,9,1,9,1.6,10
2015/2/9 6:59,1,9,1,9,1.6,9
2015/2/9 7:00,1,9,1,9,1.5,9
2015/2/9 7:01,0.9,9,0.9,9,1.5,9
2015/2/9 7:02,0.8,9,0.9,9,1.3,10
2015/2/9 7:03,0.9,9,0.9,9,1.8,10
2015/2/9 7:04,0.9,9,0.9,9,1.4,9
2015/2/9 7:05,0.8,9,0.9,9,0.9,8
2015/2/9 7:06,0.8,9,0.8,9,1.8,9
2015/2/9 7:07,0.8,9,0.8,9,1.9,10
2015/2/9 7:08,0.8,9,0.9,9,1.4,9
2015/2/9 7:09,0.8,9,0.8,9,1.5,10
2015/2/9 7:10,0.8,9,0.8,9,1.5,9
2015/2/9 7:11,0.9,9,0.9,9,1.8,9
2015/2/9 7:12,0.9,10,0.9,9,1.6,10
2015/2/9 7:13,0.8,9,0.9,9,1.1,10
2015/2/9 7:14,0.8,10,0.8,9,1.9,9
2015/2/9 7:15,0.9,9,0.9,9,1.6,9
2015/2/9 7:16,0.9,10,0.9,9,1.3,9
2015/2/9 7:17,0.8,10,0.8,9,1.8,9
2015/2/9 7:18,0.9,10,0.9,9,1.9,10
2015/2/9 7:19,0.9,10,0.9,9,1.5,8
2015/2/9 7:20,0.9,10,0.9,9,1.5,10
2015/2/9 7:21,0.8,10,0.9,9,0.6,8
2015/2/9 7:22,0.8,10,0.8,10,1.3,10
2015/2/9 7:23,0.8,10,0.8,10,0.9,11
2015/2/9 7:24,0.7,10,0.8,10,1.1,8
2015/2/9 7:25,0.8,10,0.8,10,2.1,10
2015/2/9 7:26,0.8,10,0.8,10,2,10
2015/2/9 7:27,0.8,10,0.8,10,1.6,11
2015/2/9 7:28,0.8,10,0.9,10,1.4,9
2015/2/9 7:29,0.8,10,0.8,10,0.8,10
2015/2/9 7:30,0.7,10,0.8,10,1.3,9
2015/2/9 7:31,0.9,10,0.9,10,2.5,9
2015/2/9 7:32,0.9,10,0.9,10,2.2,9
2015/2/9 7:33,1,10,1,10,2.1,9
2015/2/9 7:34,1,10,1,10,1.3,8
2015/2/9 7:35,1,10,1,10,3.1,10
2015/2/9 7:36,1.1,10,1.1,9,3.2,9
2015/2/9 7:37,1.1,10,1.1,9,2.5,10
2015/2/9 7:38,1.2,10,1.2,10,2.4,10
2015/2/9 7:39,1.3,10,1.3,10,1.8,9
2015/2/9 7:40,1.3,10,1.3,10,1.3,9
2015/2/9 7:41,1.2,10,1.3,10,1.6,10
2015/2/9 7:42,1.2,10,1.2,10,1.5,9
2015/2/9 7:43,1.2,10,1.2,10,2,9
2015/2/9 7:44,1.1,10,1.2,10,1.1,12
2015/2/9 7:45,1.1,10,1.1,10,3,10
2015/2/9 7:46,1,10,1.1,10,3,10
2015/2/9 7:47,0.9,10,1,10,2.1,9
2015/2/9 7:48,1,10,1,10,3,11
2015/2/9 7:49,1,10,1,10,2.9,10
2015/2/9 7:50,1.1,10,1.1,10,2.2,11
2015/2/9 7:51,1.2,10,1.2,10,2.2,11
2015/2/9 7:52,1.2,10,1.2,10,2.5,9
2015/2/9 7:53,1.3,10,1.3,10,2.7,11
2015/2/9 7:54,1.5,10,1.5,10,2.6,9
2015/2/9 7:55,1.5,10,1.5,10,3.1,9
2015/2/9 7:56,1.6,10,1.6,10,2.9,10
2015/2/9 7:57,1.7,10,1.7,10,2.9,10
2015/2/9 7:58,1.6,10,1.7,10,1.3,12
2015/2/9 7:59,1.5,11,1.6,10,1.5,10
2015/2/9 8:00,1.5,11,1.5,10,1.9,14
2015/2/9 8:01,1.4,11,1.5,10,1.6,14
2015/2/9 8:02,1.3,11,1.4,10,2,10
2015/2/9 8:03,1.3,11,1.3,10,2,10
2015/2/9 8:04,1.3,11,1.3,10,2.4,13
2015/2/9 8:05,1.3,11,1.3,10,2.1,14
2015/2/9 8:06,1.2,11,1.3,10,1.8,11
2015/2/9 8:07,1.1,12,1.2,10,1.4,14
2015/2/9 8:08,1.2,12,1.2,11,3.1,10
2015/2/9 8:09,1.3,11,1.3,11,3.5,10
2015/2/9 8:10,1.3,11,1.3,11,3,9
2015/2/9 8:11,1.3,11,1.3,11,2,8
2015/2/9 8:12,1.5,11,1.5,11,4.2,10
2015/2/9 8:13,1.5,11,1.5,11,3.5,10
2015/2/9 8:14,1.6,10,1.6,11,4.7,10
2015/2/9 8:15,1.7,10,1.7,10,3.7,10
2015/2/9 8:16,1.8,10,1.8,10,3,10
2015/2/9 8:17,1.9,10,1.9,10,4.7,8
2015/2/9 8:18,2,9,2,10,4.9,10
2015/2/9 8:19,2,10,2,10,4.7,11
2015/2/9 8:20,2.1,10,2.1,10,3.9,9
2015/2/9 8:21,2.2,10,2.2,10,4.2,10
2015/2/9 8:22,2.2,10,2.3,10,4.3,10
2015/2/9 8:23,2.3,10,2.3,10,4.7,10
2015/2/9 8:24,2.3,10,2.3,10,4.7,10
2015/2/9 8:25,2.3,10,2.3,10,3.2,9
2015/2/9 8:26,2.4,10,2.4,10,3.2,10
2015/2/9 8:27,2.4,10,2.4,10,2.9,11
2015/2/9 8:28,2.4,10,2.4,10,3.8,10
2015/2/9 8:29,2.5,10,2.5,10,4.4,10
2015/2/9 8:30,2.4,10,2.5,10,3.2,9
2015/2/9 8:31,2.4,10,2.4,10,4.5,10
2015/2/9 8:32,2.5,10,2.5,10,4.2,9
2015/2/9 8:33,2.5,10,2.5,10,3.9,10
2015/2/9 8:34,2.5,10,2.5,10,3.5,10
2015/2/9 8:35,2.5,10,2.5,10,4.2,10
2015/2/9 8:36,2.6,10,2.6,10,3.7,9
2015/2/9 8:37,2.7,10,2.7,10,3.8,9
2015/2/9 8:38,2.7,10,2.7,10,4.3,10
2015/2/9 8:39,2.6,10,2.7,10,5,10
2015/2/9 8:40,2.8,10,2.8,10,5.4,10
2015/2/9 8:41,2.8,10,2.8,10,5.5,10
2015/2/9 8:42,2.9,10,2.9,10,4.9,10
2015/2/9 8:43,3,10,3,10,5,10
2015/2/9 8:44,3.1,10,3.1,10,4.5,10
2015/2/9 8:45,3.1,10,3.1,10,5,10
2015/2/9 8:46,3.1,10,3.2,10,5.1,10
2015/2/9 8:47,3.1,10,3.1,10,4.4,10
2015/2/9 8:48,3,10,3.1,10,2.9,10
2015/2/9 8:49,3,10,3,10,4.2,10
2015/2/9 8:50,3,10,3,10,4.8,10
2015/2/9 8:51,2.8,10,3,10,3.7,8
2015/2/9 8:52,2.7,10,2.8,10,3.7,9
2015/2/9 8:53,2.5,10,2.7,10,3.5,9
2015/2/9 8:54,2.4,10,2.4,10,4.5,9
2015/2/9 8:55,2.3,10,2.4,10,3.2,10
2015/2/9 8:56,2.1,10,2.2,10,2.6,8
2015/2/9 8:57,2.1,10,2.1,10,4.8,11
2015/2/9 8:58,2.2,10,2.2,10,4.1,9
2015/2/9 8:59,2.1,10,2.2,10,3.8,10
2015/2/9 9:00,2,10,2.1,10,3.9,10
2015/2/9 9:01,2,10,2,10,4.4,9
2015/2/9 9:02,2,9,2,10,3.7,10
2015/2/9 9:03,2,9,2,10,3.7,9
2015/2/9 9:04,1.9,9,2,10,4.4,9
2015/2/9 9:05,2.1,9,2.1,10,4.2,9
2015/2/9 9:06,2.1,9,2.1,10,3.6,9
2015/2/9 9:07,2,9,2.1,10,4.5,10
2015/2/9 9:08,2,9,2,10,3.6,8
2015/2/9 9:09,2.1,9,2.1,10,5,10
2015/2/9 9:10,2,9,2.1,9,2.7,10
2015/2/9 9:11,2,9,2,9,5.1,9
2015/2/9 9:12,2,10,2.1,9,6.4,9
2015/2/9 9:13,2,9,2,9,3.8,8
2015/2/9 9:14,1.9,9,2,9,3.1,9
2015/2/9 9:15,1.9,9,1.9,9,4.8,8
2015/2/9 9:16,2,9,2,9,5.7,9
2015/2/9 9:17,2.2,9,2.2,9,6.4,9
2015/2/9 9:18,2.4,9,2.4,9,5.8,9
2015/2/9 9:19,2.6,9,2.6,9,6.5,9
2015/2/9 9:20,2.7,9,2.7,9,4.4,9
2015/2/9 9:21,2.7,9,2.8,9,5.2,9
2015/2/9 9:22,2.6,9,2.7,9,5.8,10
2015/2/9 9:23,2.7,9,2.7,9,6.2,9
2015/2/9 9:24,2.8,10,2.8,9,4.9,8
2015/2/9 9:25,2.8,10,2.8,9,4.3,8
2015/2/9 9:26,2.6,10,2.7,9,5.6,9
2015/2/9 9:27,2.4,10,2.5,9,4.9,9
2015/2/9 9:28,2.3,10,2.4,9,5.2,9
2015/2/9 9:29,1.9,10,2.3,9,2.2,9
2015/2/9 9:30,2,10,2,9,6.3,9
2015/2/9 9:31,2.2,10,2.2,9,7.4,10
2015/2/9 9:32,2.2,10,2.2,9,4.3,8
2015/2/9 9:33,2.2,10,2.2,9,6.2,9
2015/2/9 9:34,2.2,10,2.2,10,5,8
2015/2/9 9:35,2.4,10,2.4,10,7.9,8
2015/2/9 9:36,2.4,10,2.5,10,6.4,9
2015/2/9 9:37,2.5,10,2.5,10,6.5,10
2015/2/9 9:38,2.5,10,2.6,10,5.8,10
2015/2/9 9:39,2.7,10,2.7,10,5,10
2015/2/9 9:40,2.9,10,3,10,8.1,11
2015/2/9 9:41,2.9,10,2.9,10,6.3,11
2015/2/9 9:42,3.3,10,3.3,10,7.8,10
2015/2/9 9:43,3.5,10,3.5,10,8.2,9
2015/2/9 9:44,3.6,10,3.6,10,6.2,9
2015/2/9 9:45,3.6,10,3.6,10,6.9,9
2015/2/9 9:46,3.8,10,3.8,10,6.8,10
2015/2/9 9:47,3.8,10,3.9,10,6.1,10
2015/2/9 9:48,3.7,10,3.8,10,5,10
2015/2/9 9:49,4.1,10,4.1,10,7.1,10
2015/2/9 9:50,4,10,4.1,10,7.4,10
2015/2/9 9:51,4,10,4.1,10,7.4,10
2015/2/9 9:52,3.8,10,4,10,6.3,10
2015/2/9 9:53,3.6,10,3.8,10,5.5,11
2015/2/9 9:54,3.6,10,3.7,10,5,9
2015/2/9 9:55,3.3,10,3.6,10,3.9,10
2015/2/9 9:56,3.4,10,3.4,10,9,10
2015/2/9 9:57,3.6,10,3.6,10,9.3,10
2015/2/9 9:58,3.6,10,3.6,10,7.1,10
2015/2/9 9:59,3.4,10,3.6,10,5.2,10
2015/2/9 10:00,3.3,10,3.4,10,7,9
2015/2/9 10:01,3.5,10,3.5,10,7.9,10
2015/2/9 10:02,3.6,10,3.6,10,6.7,10
2015/2/9 10:03,3.7,10,3.7,10,6,9
2015/2/9 10:04,3.9,10,3.9,10,6,9
2015/2/9 10:05,4,10,4,10,5.5,10
2015/2/9 10:06,4,10,4.1,10,8.1,9
2015/2/9 10:07,4.1,10,4.1,10,8.3,10
2015/2/9 10:08,4.4,10,4.4,10,8.1,10
2015/2/9 10:09,4.6,10,4.6,10,8.3,9
2015/2/9 10:10,4.6,10,4.7,10,6.7,9
2015/2/9 10:11,4.5,10,4.6,10,7,10
2015/2/9 10:12,4.5,10,4.6,10,8.7,9
2015/2/9 10:13,4.6,10,4.7,10,8.9,9
2015/2/9 10:14,4.8,10,4.8,10,7.9,10
2015/2/9 10:15,5.1,10,5.1,10,9.5,10
2015/2/9 10:16,5.3,10,5.3,10,8.3,10
2015/2/9 10:17,5.3,10,5.3,10,8.1,10
2015/2/9 10:18,5.2,10,5.3,10,6.2,9
2015/2/9 10:19,5.1,10,5.1,10,7.2,10
2015/2/9 10:20,5.2,10,5.3,10,7.6,11
2015/2/9 10:21,5.2,10,5.2,10,5.7,10
2015/2/9 10:22,5,10,5.2,10,5.6,9
2015/2/9 10:23,4.8,10,4.9,10,5.4,9
2015/2/9 10:24,4.6,10,4.7,10,6.4,10
2015/2/9 10:25,4.2,10,4.6,10,6.5,10
2015/2/9 10:26,4.1,10,4.2,10,7.2,11
2015/2/9 10:27,4,10,4.1,10,7.6,10
2015/2/9 10:28,4.1,10,4.1,10,7.1,10
2015/2/9 10:29,4,10,4.1,10,7.2,10
2015/2/9 10:30,4.1,10,4.1,10,7.8,10
2015/2/9 10:31,4.1,10,4.1,10,5.5,10
2015/2/9 10:32,4.1,10,4.1,10,6.7,10
2015/2/9 10:33,4,10,4.1,10,3.8,8
2015/2/9 10:34,4,11,4,10,4.8,10
2015/2/9 10:35,3.9,11,4,10,3.9,11
2015/2/9 10:36,3.6,11,3.9,10,4.1,12
2015/2/9 10:37,3.3,11,3.6,10,5,10
2015/2/9 10:38,3.1,11,3.3,10,3.2,11
2015/2/9 10:39,2.8,11,3,10,3.3,9
2015/2/9 10:40,2.4,11,2.7,10,3.2,8
2015/2/9 10:41,2.2,11,2.4,10,4.7,12
2015/2/9 10:42,2.3,11,2.3,10,6,13
2015/2/9 10:43,2.6,12,2.6,10,7.6,13
2015/2/9 10:44,2.7,12,2.7,11,6.8,12
2015/2/9 10:45,2.9,12,2.9,11,6.4,14
2015/2/9 10:46,3,12,3,11,7.1,11
2015/2/9 10:47,3.1,12,3.1,11,5,11
2015/2/9 10:48,3.1,12,3.1,12,3.8,12
2015/2/9 10:49,3.3,12,3.3,12,5,12
2015/2/9 10:50,3.5,12,3.5,12,5.5,11
2015/2/9 10:51,3.5,12,3.5,12,7.4,13
2015/2/9 10:52,3.5,12,3.6,12,7.2,13
2015/2/9 10:53,3.2,12,3.4,12,5.6,10
2015/2/9 10:54,3.1,12,3.2,12,6.1,13
2015/2/9 10:55,3,12,3.1,12,5.7,10
2015/2/9 10:56,3,11,3.1,12,6.2,9
2015/2/9 10:57,2.9,11,2.9,12,6.3,12
2015/2/9 10:58,3,11,3,12,6.1,13
2015/2/9 10:59,3,11,3.1,12,6.9,13
2015/2/9 11:00,2.9,11,3,12,4.9,9
2015/2/9 11:01,2.9,11,3,12,4.1,13
2015/2/9 11:02,2.9,12,2.9,12,5,15
2015/2/9 11:03,2.9,12,3,12,4.4,14
2015/2/9 11:04,2.9,12,2.9,12,4.8,11
2015/2/9 11:05,2.9,12,3,12,4.8,13
2015/2/9 11:06,2.9,12,2.9,11,3.7,13
2015/2/9 11:07,2.9,12,2.9,11,5.2,8
2015/2/9 11:08,2.9,12,2.9,11,6,7
2015/2/9 11:09,2.9,12,2.9,11,6.3,12
2015/2/9 11:10,2.9,12,2.9,11,5.8,12
2015/2/9 11:11,2.9,12,2.9,12,4.7,10
2015/2/9 11:12,3,12,3,12,7.5,10
2015/2/9 11:13,3.1,11,3.1,11,5.6,13
2015/2/9 11:14,3.2,12,3.2,11,5,12
2015/2/9 11:15,3.1,12,3.2,11,3.9,12
2015/2/9 11:16,3.1,12,3.1,11,4.1,13
2015/2/9 11:17,3.1,12,3.1,11,3.5,10
2015/2/9 11:18,2.8,12,3,11,2,15
2015/2/9 11:19,2.6,12,2.8,11,2.2,11
2015/2/9 11:20,2.5,12,2.6,11,4.2,13
2015/2/9 11:21,2.6,12,2.6,11,6.8,13
2015/2/9 11:22,2.5,13,2.6,11,6.5,12
2015/2/9 11:23,2.3,13,2.4,11,3.8,13
2015/2/9 11:24,2.2,13,2.3,12,4.2,10
2015/2/9 11:25,2.2,12,2.2,12,3.7,11
2015/2/9 11:26,2.2,12,2.3,12,3.1,11